SL-8 R/B

Satellite information

Favourite Embed

Satellite Type and Status

ROCKET BODYIN ORBIT

Key statistics

Satellite SL-8 R/B at a glance.

Uptime

17697

Days in orbit

Revolutions

≈ 14.4

Per day

Orbit

LEO

Low Earth Orbit

Inclination

74.0

Latest

Satellite identification and parameters

Extended collection of information and parameters for SL-8 R/B.

Object identification

Identified? True

Debris? False

Object name: SL-8 R/B

International designator: 1977-059B

Object number (NORAD): 10121

Object ID (CCSDS): 10121

Country: COMMONWEALTH OF INDEPENDENT STATES (CIS)

Current information (Y/N): Y

RCS size: LARGE

Orbital parameters

Period: 100.188 minutes

Inclination: 74.0447 deg

SMA: 7145.568 km

Apoapsis: 780.265 km

Periapsis: 754.601 km

RAAN: 202.6883 deg

Eccentricy: 0.0017958

Argument of periapsis: 151.8231 deg

Mean anomaly: 208.3898 deg

Mean motion: 14.3730053 rev/day

Mean motion (dot): 0.00000382 rev/day2

B* drag term: 0.00013676009 1/REarth

Two-line elements (TLE)

Creation date: Dec. 12, 2025, 10:14 a.m.

Reference frame: TEME

Reference center: EARTH

Epoch: Dec. 12, 2025, 2:27 a.m. UTC

TLE line 0: 0 SL-8 R/B

TLE line 1: 1 10121U 77059B 25346.10226614 .00000382 00000-0 13676-3 0 9994

TLE line 2: 2 10121 74.0447 202.6883 0017958 151.8231 208.3898 14.37300530534616

Live tracking on map

Real-time ground track for satellite SL-8 R/B.

In-orbit conjunctions

A list of the most updated potential collisions computed for object SL-8 R/B.

Target Orbit TCA Probability of collision Miss distance Type
CZ-6A DEB SSO 2025-08-26 15:31:23 0.0002757191 273.0 (m) DEBRIS
SCOUT X-1 DEB LEO 2025-02-13 09:23:50 0.0001449994 29.0 (m) DEBRIS
NOAA 16 DEB SSO 2024-11-09 13:39:57 0.0001036795 564.0 (m) DEBRIS
FENGYUN 1C DEB SSO 2024-08-29 03:09:16 0.0001064203 890.0 (m) DEBRIS
SL-14 DEB LEO 2024-07-04 15:59:03 0.0002441375 687.0 (m) DEBRIS

Associated space launch

Military communications satellite

SL-8 R/B was lifted into orbit during the mission ‘Kosmos-3M | Strela-2M 15’, on board a Kosmos-3M space rocket.

The launch took place on July 1, 1977, 11:52 a.m. from 132/1 (132L).

For more information about the launch, click the button.

Launch to space Kosmos-3M | Strela-2M 15
Kosmos-3M | Strela-2M 15

Agency: N/A

Status: Launch Successful

Launch date: July 1, 1977, 11:52 a.m. UTC

Rocket: Kosmos-3M

Launch pad: 132/1 (132L)

Location: Plesetsk Cosmodrome, Russian Federation

...

Latest news about this satellite

There are no fresh news available about this satellite. Check back as we update our databases every day.


Newsletter sign-up

Weekly statistics, charts and insights to help you stay on top of the space industry.